When you browse on this site, cookies collect data to enhance your experience and personalize the content and advertising you see.
Visit our Privacy Policy to learn more. By continuing to use the site, you agree to this use of cookies and data.
  • In France
  • List of Countries
  • For 7 days
  • Water Temperature
  • Satellite Maps
  • Weather Map
  • Weather Widgets
  • user-avatar
    Login

    Hourly Weather Escuintla

    Today, 16 July, Tuesday

    Time Temperature Precipitation Wind Pressure Humidity
    00:00 +24°C° 0 mm 3 mps 730 mmHg 93%
    01:00 +24°C° 0.8 mm 2 mps 729 mmHg 91%
    02:00 +24°C° 0.8 mm 2 mps 729 mmHg 90%
    03:00 +24°C° 0.8 mm 2 mps 728 mmHg 88%
    04:00 +24°C° 0 mm 2 mps 728 mmHg 85%
    05:00 +25°C° 0 mm 2 mps 729 mmHg 82%
    06:00 +25°C° 0 mm 2 mps 729 mmHg 79%
    07:00 +26°C° 0 mm 1 mps 729 mmHg 77%
    08:00 +27°C° 0 mm 1 mps 729 mmHg 75%
    09:00 +28°C° 0 mm 1 mps 730 mmHg 74%
    10:00 +28°C° 0.1 mm 1 mps 730 mmHg 76%
    11:00 +27°C° 0.1 mm 0 mps 730 mmHg 77%
    12:00 +27°C° 0.1 mm 0 mps 730 mmHg 79%
    13:00 +27°C° 0.4 mm 0 mps 729 mmHg 82%
    14:00 +28°C° 0.4 mm 1 mps 729 mmHg 84%
    15:00 +28°C° 0.4 mm 1 mps 728 mmHg 87%
    16:00 +26°C° 0.2 mm 0 mps 728 mmHg 88%
    17:00 +25°C° 0.2 mm 0 mps 729 mmHg 89%
    18:00 +25°C° 0.2 mm 0 mps 729 mmHg 90%
    19:00 +26°C° 0.1 mm 1 mps 729 mmHg 90%
    20:00 +25°C° 0.1 mm 1 mps 729 mmHg 90%
    21:00 +25°C° 0.1 mm 1 mps 730 mmHg 89%
    22:00 +25°C° 0 mm 1 mps 730 mmHg 88%
    23:00 +25°C° 0 mm 2 mps 730 mmHg 86%

    Tomorrow, 17 July, Wednesday

    Time Temperature Precipitation Wind Pressure Humidity
    00:00 +24°C° 0 mm 2 mps 730 mmHg 85%
    01:00 +24°C° 0 mm 2 mps 730 mmHg 84%
    02:00 +24°C° 0 mm 2 mps 729 mmHg 82%
    03:00 +24°C° 0 mm 2 mps 729 mmHg 81%
    04:00 +24°C° 0 mm 2 mps 729 mmHg 80%
    05:00 +24°C° 0 mm 2 mps 729 mmHg 79%
    06:00 +24°C° 0 mm 2 mps 729 mmHg 78%
    07:00 +26°C° 0 mm 1 mps 729 mmHg 73%
    08:00 +28°C° 0 mm 1 mps 730 mmHg 68%
    09:00 +30°C° 0 mm 1 mps 730 mmHg 63%
    10:00 +31°C° 0 mm 1 mps 730 mmHg 61%
    11:00 +32°C° 0 mm 1 mps 730 mmHg 59%
    12:00 +34°C° 0 mm 2 mps 730 mmHg 57%
    13:00 +32°C° 0.5 mm 2 mps 729 mmHg 63%
    14:00 +31°C° 0.5 mm 2 mps 729 mmHg 69%
    15:00 +31°C° 0.5 mm 1 mps 728 mmHg 75%
    16:00 +30°C° 1 mm 1 mps 728 mmHg 81%
    17:00 +29°C° 1 mm 1 mps 728 mmHg 87%
    18:00 +28°C° 1 mm 1 mps 728 mmHg 92%
    19:00 +27°C° 0.5 mm 1 mps 729 mmHg 92%
    20:00 +26°C° 0.5 mm 1 mps 729 mmHg 93%
    21:00 +25°C° 0.5 mm 2 mps 729 mmHg 93%
    22:00 +24°C° 0 mm 2 mps 729 mmHg 92%
    23:00 +24°C° 0 mm 2 mps 729 mmHg 90%

    Day after tomorrow, 18 July, Thursday

    Time Temperature Precipitation Wind Pressure Humidity
    00:00 +24°C° 0 mm 2 mps 729 mmHg 89%
    01:00 +24°C° 0 mm 2 mps 729 mmHg 87%
    02:00 +24°C° 0 mm 2 mps 728 mmHg 85%
    03:00 +24°C° 0 mm 2 mps 728 mmHg 83%
    04:00 +24°C° 0 mm 2 mps 728 mmHg 82%
    05:00 +24°C° 0 mm 2 mps 728 mmHg 81%
    06:00 +24°C° 0 mm 2 mps 728 mmHg 81%
    07:00 +26°C° 0 mm 1 mps 729 mmHg 76%
    08:00 +28°C° 0 mm 1 mps 729 mmHg 71%
    09:00 +30°C° 0 mm 1 mps 730 mmHg 66%
    10:00 +30°C° 0.4 mm 1 mps 730 mmHg 68%
    11:00 +31°C° 0.4 mm 1 mps 730 mmHg 71%
    12:00 +31°C° 0.4 mm 2 mps 729 mmHg 73%
    13:00 +31°C° 0.8 mm 1 mps 729 mmHg 74%
    14:00 +31°C° 0.8 mm 1 mps 728 mmHg 75%
    15:00 +31°C° 0.8 mm 1 mps 728 mmHg 76%
    16:00 +30°C° 1 mm 1 mps 728 mmHg 81%
    17:00 +29°C° 1 mm 1 mps 728 mmHg 86%
    18:00 +25°C° 1 mm 0 mps 728 mmHg 91%
    19:00 +27°C° 0.7 mm 1 mps 728 mmHg 92%
    20:00 +26°C° 0.7 mm 1 mps 729 mmHg 92%
    21:00 +25°C° 0.7 mm 2 mps 729 mmHg 93%
    22:00 +25°C° 0 mm 2 mps 729 mmHg 91%
    23:00 +25°C° 0 mm 2 mps 729 mmHg 90%

    19 July, Friday

    Time Temperature Precipitation Wind Pressure Humidity
    00:00 +24°C° 0 mm 2 mps 729 mmHg 89%
    01:00 +24°C° 0 mm 2 mps 729 mmHg 87%
    02:00 +24°C° 0 mm 2 mps 728 mmHg 86%
    03:00 +24°C° 0 mm 2 mps 728 mmHg 84%
    04:00 +24°C° 0 mm 2 mps 728 mmHg 83%
    05:00 +24°C° 0 mm 2 mps 728 mmHg 82%
    06:00 +23°C° 0 mm 2 mps 728 mmHg 80%
    07:00 +26°C° 0 mm 1 mps 729 mmHg 74%
    08:00 +28°C° 0 mm 1 mps 729 mmHg 68%
    09:00 +30°C° 0 mm 1 mps 730 mmHg 62%
    10:00 +31°C° 0 mm 1 mps 730 mmHg 60%
    11:00 +32°C° 0 mm 1 mps 730 mmHg 59%
    12:00 +34°C° 0 mm 2 mps 729 mmHg 57%
    13:00 +32°C° 0.3 mm 2 mps 729 mmHg 61%
    14:00 +32°C° 0.3 mm 1 mps 728 mmHg 66%
    15:00 +31°C° 0.3 mm 1 mps 728 mmHg 70%
    16:00 +30°C° 0.3 mm 1 mps 728 mmHg 76%
    17:00 +29°C° 0.3 mm 1 mps 728 mmHg 82%
    18:00 +28°C° 0.3 mm 1 mps 728 mmHg 87%
    19:00 +27°C° 0 mm 1 mps 728 mmHg 88%
    20:00 +26°C° 0 mm 1 mps 729 mmHg 88%
    21:00 +25°C° 0 mm 2 mps 729 mmHg 89%
    22:00 +25°C° 0 mm 2 mps 729 mmHg 87%
    23:00 +25°C° 0 mm 2 mps 729 mmHg 86%

    20 July, Saturday

    Time Temperature Precipitation Wind Pressure Humidity
    00:00 +25°C° 0 mm 2 mps 729 mmHg 85%
    01:00 +24°C° 0 mm 2 mps 728 mmHg 84%
    02:00 +24°C° 0 mm 2 mps 728 mmHg 83%
    03:00 +24°C° 0 mm 2 mps 727 mmHg 81%
    04:00 +24°C° 0 mm 2 mps 728 mmHg 79%
    05:00 +24°C° 0 mm 2 mps 728 mmHg 77%
    06:00 +24°C° 0 mm 2 mps 728 mmHg 75%
    07:00 +26°C° 0 mm 2 mps 728 mmHg 70%
    08:00 +28°C° 0 mm 1 mps 729 mmHg 65%
    09:00 +30°C° 0 mm 1 mps 729 mmHg 60%
    10:00 +31°C° 0 mm 1 mps 729 mmHg 58%
    11:00 +32°C° 0 mm 1 mps 729 mmHg 57%
    12:00 +34°C° 0 mm 2 mps 729 mmHg 55%
    13:00 +33°C° 0.4 mm 1 mps 728 mmHg 59%
    14:00 +33°C° 0.4 mm 1 mps 727 mmHg 63%
    15:00 +32°C° 0.4 mm 1 mps 727 mmHg 66%
    16:00 +31°C° 0.6 mm 1 mps 727 mmHg 74%
    17:00 +30°C° 0.6 mm 1 mps 727 mmHg 81%
    18:00 +27°C° 0.6 mm 0 mps 727 mmHg 88%
    19:00 +28°C° 0.6 mm 1 mps 728 mmHg 88%
    20:00 +27°C° 0.6 mm 1 mps 728 mmHg 89%
    21:00 +26°C° 0.6 mm 1 mps 729 mmHg 89%
    22:00 +26°C° 2.3 mm 1 mps 729 mmHg 91%
    23:00 +25°C° 2.3 mm 1 mps 729 mmHg 92%

    21 July, Sunday

    Time Temperature Precipitation Wind Pressure Humidity
    00:00 +25°C° 2.3 mm 2 mps 729 mmHg 94%
    01:00 +25°C° 0.5 mm 2 mps 729 mmHg 93%
    02:00 +24°C° 0.5 mm 2 mps 728 mmHg 93%
    03:00 +24°C° 0.5 mm 2 mps 728 mmHg 92%
    04:00 +24°C° 0 mm 2 mps 728 mmHg 89%
    05:00 +24°C° 0 mm 2 mps 728 mmHg 87%
    06:00 +24°C° 0 mm 2 mps 728 mmHg 84%
    07:00 +26°C° 0 mm 2 mps 728 mmHg 77%
    08:00 +28°C° 0 mm 1 mps 728 mmHg 71%
    09:00 +29°C° 0 mm 0 mps 729 mmHg 65%
    10:00 +31°C° 0 mm 1 mps 729 mmHg 62%
    11:00 +32°C° 0 mm 1 mps 728 mmHg 60%
    12:00 +34°C° 0 mm 2 mps 728 mmHg 57%
    13:00 +33°C° 0.6 mm 1 mps 728 mmHg 62%
    14:00 +32°C° 0.6 mm 1 mps 727 mmHg 66%
    15:00 +32°C° 0.6 mm 1 mps 727 mmHg 70%
    16:00 +31°C° 0.4 mm 1 mps 727 mmHg 76%
    17:00 +29°C° 0.4 mm 1 mps 727 mmHg 82%
    18:00 +28°C° 0.4 mm 1 mps 727 mmHg 88%
    19:00 +27°C° 0.7 mm 1 mps 728 mmHg 89%
    20:00 +27°C° 0.7 mm 1 mps 728 mmHg 90%
    21:00 +26°C° 0.7 mm 1 mps 729 mmHg 91%
    22:00 +26°C° 0.1 mm 1 mps 729 mmHg 89%
    23:00 +25°C° 0.1 mm 1 mps 729 mmHg 87%
    Show more